Regional Weather Roundup
Issued by NWS

Home | Current Version | Previous Version | Text Only | Print | Product List | Glossary Off
Versions: 1 2 3 4 5 6 7 8 9 10 11 12 13 14 15 16 17 18 19 20 21 22 23 24 25 26 27 28 29 30 31 32 33 34 35 36 37 38 39 40 41 42 43 44 45 46 47 48 49 50

000
ASUS43 KOAX 241410
RWRNE

WEATHER ROUNDUP FOR NEBRASKA
NATIONAL WEATHER SERVICE OMAHA NE
900 AM CDT SUN SEP 24 2017

NOTES: SATELLITE DATA IS BEING USED TO AUGMENT CLOUD COVER ABOVE
       12000 FEET.
       "FAIR" INDICATES FEW OR NO CLOUDS BELOW 12,000 FEET WITH NO
       SIGNIFICANT WEATHER AND/OR OBSTRUCTIONS TO VISIBILITY.


NEZ001>004-019>022-054>056-241500-
NEBRASKA PANHANDLE

CITY           SKY/WX    TMP DP  RH WIND       PRES   REMARKS
SCOTTSBLUFF    CLOUDY    47  42  83 N8        29.99F
ALLIANCE       CLOUDY    45  43  93 N10       29.99R
CHADRON        CLOUDY    46  43  89 N5        30.02R
GORDON         CLOUDY    45  44  97 N10G17    29.99R FOG
KIMBALL        CLOUDY    44  43  99 N7        30.01R
SIDNEY         CLOUDY    44  43  96 N13       29.99R
$$

NEZ057>060-069>072-079>082-241500-
SOUTHWEST NEBRASKA

CITY           SKY/WX    TMP DP  RH WIND       PRES   REMARKS
NORTH PLATTE   LGT RAIN  51  50  96 NW5       29.95R
IMPERIAL       CLOUDY    49  47  93 N14       29.95R
LEXINGTON      RAIN      60  58  95 W6        29.90R
MCCOOK         LGT RAIN  53  52  96 W13       29.93R FOG
OGALLALA       CLOUDY    51  48  89 NW10      29.95R
$$

NEZ005>010-023>029-035>040-094-241500-
NORTH CENTRAL NEBRASKA

CITY           SKY/WX    TMP DP  RH WIND       PRES   REMARKS
VALENTINE      LGT RAIN  51  49  92 NW13      29.91F
AINSWORTH      RAIN      50  50 100 N7        29.91S
BROKEN BOW     LGT RAIN  53  52  96 N15       29.87F
O`NEILL        LGT RAIN  52  52 100 NW7       29.90S
ORD            CLOUDY    57  54  89 NW7       29.87S
THEDFORD       CLOUDY    50  49  97 NW9G20    29.96R
$$

NEZ041-046>049-061>064-073>077-083>087-241500-
SOUTH CENTRAL NEBRASKA

CITY           SKY/WX    TMP DP  RH WIND       PRES   REMARKS
GRAND ISLAND   PTSUNNY   70  65  84 S13       29.87S
AURORA         CLOUDY    72  65  78 S12G20    29.89R
HASTINGS       PTSUNNY   72  63  73 S9        29.89R
HEBRON         MOSUNNY   74  64  70 S12       29.90S
HOLDREGE       LGT RAIN  65  63  92 S9        29.88S
KEARNEY        LGT RAIN  66  64  94 S9        29.89R
YORK           MOSUNNY   72  64  78 S12       29.89S
$$

NEZ011>018-030>034-042>045-241500-
NORTHEAST NEBRASKA

CITY           SKY/WX    TMP DP  RH WIND       PRES   REMARKS
NORFOLK        MOSUNNY   72  64  76 SE15      29.87S
ALBION         CLOUDY    67  65  91 SE5       29.87R
BLAIR          CLOUDY    75  65  71 S12G18    29.92F
COLUMBUS       SUNNY     74  63  68 S14G20    29.88F
FREMONT        MOSUNNY   73  64  73 SE8       29.91S
TEKAMAH        PTSUNNY   72  66  81 SE9       29.91S
WAYNE          MOSUNNY   71  68  89 S14       29.89S
$$

NEZ050>053-065>068-078-088>093-241500-
SOUTHEAST NEBRASKA

CITY           SKY/WX    TMP DP  RH WIND       PRES   REMARKS
LINCOLN        MOSUNNY   74  63  68 S12       29.91S
OMAHA EPPLEY   CLOUDY    75  65  70 SE12      29.92S
BEATRICE       CLOUDY    74  64  71 S10       29.92R
FALLS CITY     SUNNY     72  66  81 S9        29.94R
NEBRASKA CITY  MOSUNNY   72  70  93 S7        29.94S
PLATTSMOUTH    CLOUDY    74  67  77 E8        29.93S
$$

NEZ044-045-051>053-067-241500-
OMAHA AREA

CITY           SKY/WX    TMP DP  RH WIND       PRES   REMARKS
OMAHA EPPLEY   CLOUDY    75  65  70 SE12      29.92S
BLAIR          CLOUDY    75  65  71 S12G18    29.92F
FREMONT        MOSUNNY   73  64  73 SE8       29.91S
MILLARD        MOSUNNY   78  67  69 S7        29.92S
OFFUTT AFB     MOSUNNY   73  66  80 SE8       29.92S
PLATTSMOUTH    CLOUDY    74  67  77 E8        29.93S
WAHOO          FAIR      72  65  81 SE6       29.91S
$$




USA.gov is the U.S. government's official web portal to all federal, state and local government web resources and services.